Location: Lablach�re
(44.4660°N, 4.2165°E)
Time: 06:21:13
(UTC+00:00)

Daily predictions for brighter satellites

Satellite Brightness Start Highest point End
(mag) Time Altitude Azimuth Time Altitude Azimuth Time Altitude Azimuth
Envisat 3.4 17:38:15 10° S 17:43:18 70° WSW 17:48:24 10° NNW
Cosmos 1805 Rocket 4.1 17:40:16 10° SSE 17:44:19 37° E 17:48:21 10° NNE
COSMO-SKYMED 1 2.6 17:40:37 10° NNE 17:44:57 62° ESE 17:49:14 10° S
NOSS 3-1 (C) 4.4 17:42:52 10° SSE 17:47:03 23° ESE 17:51:37 10° ENE
Sich 1 3.8 17:44:11 10° SSE 17:47:54 29° E 17:51:37 10° NNE
Cosmos 1515 Rocket 4.4 17:44:56 10° NNW 17:49:13 56° W 17:53:27 10° S
Cosmos 1802 Rocket 4.1 17:43:21 10° SSE 17:49:26 56° E 17:55:37 10° NNE
Cosmos 1939 Rocket 3.5 17:45:41 10° SE 17:49:27 36° ENE 17:53:15 10° N
Cosmos 1812 4.2 17:47:59 10° NNE 17:50:33 17° ENE 17:53:08 10° ESE
Cosmos 2369 Rocket 3.7 17:48:23 10° SE 17:51:33 15° E 17:54:42 10° ENE
Cosmos 1500 Rocket 3.8 17:47:08 10° S 17:51:36 82° W 17:56:06 10° N
Cosmos 1707 Rocket 4.3 17:49:35 10° N 17:53:33 31° ENE 17:57:30 10° SE
Lacrosse 5 rocket 2.7 17:50:36 10° W 17:54:43 39° NNW 17:59:01 10° NE
Cosmos 1992 Rocket 4.0 17:50:07 10° S 17:55:17 65° ESE 18:00:29 10° NNE
STARLINK-42 4.0 17:54:40 10° SSW 17:57:39 32° SE 18:00:18 12° ENE
Cosmos 2082 Rocket 2.4 17:52:53 10° NNW 17:58:33 78° WSW 18:04:11 10° SSE
Cosmos 1486 Rocket 4.5 17:54:00 10° NNW 17:59:11 68° WSW 18:04:23 10° S
ATLAS 5 CENTAUR R/B 4.5 17:56:08 10° NW 18:01:22 32° WSW 18:07:10 10° S
STARLINK-80 4.0 17:57:46 10° WSW 18:01:31 52° NNW 18:05:16 10° NE
Cosmos 1743 Rocket 4.4 17:59:30 10° SSW 18:03:49 55° WNW 18:08:07 10° N
Cosmos 292 Rocket 3.7 18:00:37 10° S 18:05:23 68° ESE 18:10:10 10° NNE
Cosmos 1238 Rocket 4.0 18:02:18 10° S 18:08:17 70° E 18:14:53 10° NNE
Cosmos 1354 Rocket 4.0 18:05:09 10° NNW 18:10:29 78° ENE 18:15:45 10° SSE
H-2A R/B 3.3 18:06:27 10° ESE 18:10:32 23° ENE 18:14:40 10° NNE
STARLINK-59 4.4 18:08:27 10° SSW 18:12:04 33° SE 18:14:37 17° E
STARLINK-56 4.4 18:10:07 10° SSW 18:13:43 32° SE 18:16:09 17° E
Cosmos 1833 Rocket 4.4 18:08:56 10° NW 18:14:05 38° WSW 18:19:13 10° S
STARLINK-73 4.4 18:11:44 10° SSW 18:15:21 33° SE 18:17:44 18° E
HJ-1C 4.2 18:12:37 10° SE 18:15:32 29° ENE 18:18:27 10° N
Cosmos 2016 Rocket 3.9 18:10:37 10° S 18:16:40 76° E 18:22:47 10° N
STARLINK-38 4.3 18:13:18 10° SSW 18:16:57 34° SE 18:19:17 19° E
STARLINK-65 4.3 18:14:50 10° SSW 18:18:30 35° SE 18:20:47 19° E
SL-27 R/B 3.7 18:16:56 10° N 18:19:32 20° ENE 18:19:53 20° ENE
STARLINK-1023 4.4 18:17:56 10° S 18:20:01 18° SE 18:20:24 17° ESE
STARLINK-53 4.2 18:16:40 10° SSW 18:20:24 38° SE 18:22:39 20° E
STARLINK-64 3.6 18:18:00 10° SW 18:21:27 48° SE 18:23:31 21° ENE
STARLINK-1007 4.3 18:21:57 10° S 18:24:14 20° SE 18:24:34 20° SE
Ariane Rocket 3.3 18:22:06 10° SE 18:26:52 43° ENE 18:31:41 10° N
YAOGAN 1 2.8 18:23:27 10° S 18:27:46 72° WSW 18:32:06 10° NNW
CSL-04 Rocket 3.8 18:23:49 10° SSE 18:29:22 84° WSW 18:34:55 10° NNW
Cosmos 921 Rocket 3.5 18:26:28 10° SSE 18:30:37 38° E 18:34:49 10° NNE
STARLINK-1010 4.1 18:28:29 10° S 18:30:59 23° SE 18:31:07 23° SE
STARLINK-61 3.4 18:27:44 10° SW 18:31:38 79° SE 18:33:55 24° ENE
DMSP B5D1-3 4.4 18:26:31 10° NNE 18:31:40 74° ESE 18:36:48 10° S
USA 234 4.2 18:27:26 15° ENE 18:31:53 33° NNE 18:37:32 10° NW
USA 229 DEB 3.7 18:27:52 10° SSW 18:34:11 56° ESE 18:40:49 10° NE
USA 229 3.7 18:27:59 10° SSW 18:34:17 55° ESE 18:40:54 10° NE
Cosmos 2233 Rocket 4.0 18:28:43 10° SSE 18:34:38 54° E 18:40:37 10° NNE
Cosmos 2278 Rocket 4.2 18:30:00 10° WSW 18:34:42 27° NW 18:39:28 10° N
ADEOS Rocket 3.5 18:27:47 10° NNE 18:35:31 73° ESE 18:43:15 10° S
STARLINK-1008 4.0 18:32:55 10° SSW 18:35:36 26° SE 18:35:42 26° SE
ARGOS 3.9 18:32:57 16° ESE 18:36:24 32° ENE 18:41:09 10° N
STARLINK-1016 4.0 18:34:01 10° SSW 18:36:42 27° SE 18:36:45 27° SE
STARLINK-1025 4.0 18:34:31 10° SSW 18:37:13 28° SE 18:37:17 28° SE
STARLINK-1017 4.0 18:34:43 10° SSW 18:37:24 27° SE 18:37:24 27° SE
STARLINK-1029 4.5 18:35:49 10° S 18:37:56 21° SE 18:37:56 21° SE
Cosmos 1633 Rocket 3.0 18:34:48 10° S 18:39:04 61° E 18:43:21 10° NNE
STARLINK-1048 3.9 18:37:13 10° SSW 18:39:51 29° SE 18:39:51 29° SE
STARLINK-1028 3.9 18:37:33 10° SSW 18:40:10 29° SE 18:40:10 29° SE
Abrixas rocket 3.2 18:37:41 10° W 18:40:27 37° SSW 18:41:54 21° SSE
STARLINK-1021 3.9 18:37:51 10° SSW 18:40:28 29° SE 18:40:28 29° SE
STARLINK-1049 3.9 18:38:03 10° SSW 18:40:41 29° SE 18:40:41 29° SE
Cosmos 1666 Rocket 3.5 18:36:38 10° S 18:41:05 79° E 18:45:35 10° N
STARLINK-48 4.3 18:37:33 10° W 18:41:17 43° NNW 18:43:32 21° NE
NOSS 3-1 (A) 3.8 18:36:36 10° S 18:41:31 36° ESE 18:44:28 23° ENE
STARLINK-1051 3.9 18:38:56 10° SSW 18:41:33 30° SE 18:41:33 30° SE
STARLINK-1019 3.9 18:39:22 10° SSW 18:41:57 30° SE 18:41:57 30° SE
Lacrosse 4 Rocket 2.0 18:38:55 10° SW 18:43:02 58° WNW 18:47:18 10° NNE
STARLINK-1012 3.8 18:40:19 10° SSW 18:42:53 30° SE 18:42:53 30° SE
STARLINK 1040 3.5 18:40:50 10° SSW 18:43:08 33° SSE 18:43:08 33° SSE
STARLINK-1026 3.8 18:41:33 10° SSW 18:44:07 31° SSE 18:44:07 31° SSE
SJ-6B 4.2 18:45:54 20° NE 18:45:54 20° NE 18:47:40 10° NNE
Meteor 1-10 Rocket 4.4 18:40:01 10° NNW 18:45:39 74° W 18:51:11 10° S
STARLINK-1013 3.8 18:43:07 10° SSW 18:45:39 32° SSE 18:45:39 32° SSE
STARLINK-1009 3.8 18:44:03 10° SSW 18:46:34 33° SSE 18:46:34 33° SSE
STARLINK-1015 3.8 18:44:20 10° SSW 18:46:56 33° SSE 18:46:56 33° SSE
SPOT 3 Rocket 4.3 18:50:00 30° ENE 18:50:35 30° ENE 18:55:05 10° N
CRYOSAT 2 4.2 18:45:51 10° S 18:50:43 79° E 18:55:39 10° N
Cosmos 1862 3.8 18:47:03 10° SSW 18:51:01 61° W 18:54:58 10° N
SL-4 R/B 2.3 18:46:48 10° WNW 18:51:33 77° SSW 18:53:46 30° SE
STARLINK-24 3.5 18:48:00 10° SW 18:51:59 68° SE 18:53:07 43° ENE
Cosmos 44 4.1 18:48:13 10° NNW 18:52:01 28° NE 18:52:10 28° NE
Cosmos 2242 Rocket 4.1 18:54:23 10° N 18:58:26 39° ENE 18:58:26 39° ENE
STARLINK-81 3.4 18:55:43 10° SW 18:59:43 71° SE 19:00:28 54° E
STARLINK-26 4.4 18:57:29 10° W 19:00:42 34° NNW 19:01:37 29° NNE
STARLINK-54 3.4 18:57:32 10° SW 19:01:34 79° SE 19:02:20 56° ENE
STARLINK-77 3.4 18:59:00 10° SW 19:03:00 76° SE 19:03:38 60° E
STARLINK-25 3.4 19:00:41 10° SW 19:04:41 78° SE 19:05:15 62° ENE
STARLINK-71 3.4 19:02:25 10° SW 19:06:27 87° SE 19:07:03 63° ENE
STARLINK-79 3.4 19:03:58 10° SW 19:07:59 82° SE 19:08:26 69° ENE
Cosmos 1943 Rocket 2.0 19:02:32 10° SSW 19:08:08 82° ESE 19:13:26 11° NNE
MOS 1 4.2 19:03:25 10° SSE 19:09:03 74° ENE 19:14:44 10° N
STARLINK-78 3.4 19:05:36 10° SW 19:09:38 85° SE 19:10:01 72° ENE
STARLINK-75 3.5 19:07:25 10° WSW 19:10:49 57° NNW 19:10:56 56° NNW
STARLINK-57 3.4 19:07:12 10° SW 19:11:13 90° E 19:11:36 73° NE
STARLINK-49 3.4 19:08:53 10° SW 19:12:54 89° SSE 19:13:10 78° ENE
STARLINK-33 3.8 19:10:39 10° WSW 19:13:44 48° NW 19:13:44 48° NW
STARLINK-27 3.4 19:10:36 10° SW 19:14:37 89° NNW 19:14:49 81° NE
STARLINK-66 3.9 19:12:21 10° WSW 19:15:21 46° NW 19:15:21 46° NW
STARLINK-22 3.5 19:12:09 10° WSW 19:15:21 62° NW 19:15:21 62° NW
STARLINK-74 3.4 19:12:09 10° WSW 19:16:11 87° NNW 19:16:18 83° NNE
STARLINK-41 3.6 19:13:26 10° WSW 19:16:38 57° NW 19:16:38 57° NW
STARLINK-55 4.0 19:14:06 10° W 19:17:01 43° NW 19:17:01 43° NW
STARLINK-39 3.4 19:13:49 10° WSW 19:17:51 85° NNW 19:17:55 84° N
STARLINK-28 4.2 19:15:52 10° W 19:18:43 40° NW 19:18:43 40° NW
STARLINK-31 3.5 19:15:32 10° WSW 19:19:33 82° NNW 19:19:33 82° NNW
Cosmos 1607 4.5 19:14:03 10° NW 19:20:14 59° WSW 19:25:53 13° SSE
Cosmos 1470 Rocket 3.4 19:16:35 10° S 19:20:55 86° W 19:25:19 10° N
STARLINK-69 3.5 19:17:18 10° WSW 19:21:19 75° NNW 19:21:20 75° NNW
STARLINK-21 3.6 19:18:53 10° WSW 19:22:47 77° NW 19:22:47 77° NW
STARLINK-45 3.7 19:20:42 10° WSW 19:24:37 70° NW 19:24:37 70° NW
STARLINK-70 3.7 19:22:19 10° WSW 19:26:08 69° NW 19:26:08 69° NW
Cosmos 1812 4.3 19:22:56 10° NNW 19:26:30 36° W 19:30:03 10° SSW
STARLINK-58 4.1 19:24:08 10° WSW 19:27:02 48° WNW 19:27:02 48° WNW
STARLINK-76 3.8 19:23:52 10° WSW 19:27:34 67° WNW 19:27:34 67° WNW
Cosmos 1862 Rocket 4.0 19:23:51 10° NNW 19:28:06 58° W 19:31:34 15° S
STARLINK-62 4.2 19:25:50 10° WSW 19:28:41 45° WNW 19:28:41 45° WNW
STARLINK-23 3.8 19:25:28 10° WSW 19:29:06 65° WNW 19:29:06 65° WNW
Cosmos 1777 Rocket 4.3 19:24:20 10° NNW 19:29:34 65° WSW 19:32:51 23° S
STARLINK-34 4.3 19:27:04 10° WSW 19:29:50 43° WNW 19:29:50 43° WNW
STARLINK-32 3.9 19:27:09 10° WSW 19:30:43 62° WNW 19:30:43 62° WNW
STARLINK-40 4.0 19:28:41 10° WSW 19:32:12 59° WNW 19:32:12 59° WNW
Cosmos 1833 4.3 19:27:06 10° NNW 19:32:36 56° NE 19:32:36 56° NE
STARLINK-44 4.1 19:30:24 10° WSW 19:33:50 56° WNW 19:33:50 56° WNW
Cosmos 2285 Rocket 3.9 19:28:05 10° NNW 19:34:28 81° ENE 19:36:24 48° SSE
Cosmos 1464 Rocket 3.9 19:28:27 10° S 19:34:40 62° E 19:40:58 10° NNE
Cosmos 2369 Rocket 2.2 19:29:09 10° SSW 19:34:47 80° WNW 19:38:20 24° NNE
Lacrosse 5 rocket 3.6 19:31:53 10° NW 19:35:01 18° N 19:35:54 17° N
STARLINK-37 4.2 19:32:09 10° WSW 19:35:33 53° WNW 19:35:33 53° WNW
NOSS 3-1 (C) 3.7 19:31:42 10° SW 19:37:10 62° NW 19:40:53 25° NNE
STARLINK-36 4.3 19:33:42 10° WSW 19:36:59 51° WNW 19:36:59 51° WNW
STARLINK-68 4.4 19:35:36 10° WSW 19:38:52 48° WNW 19:38:52 48° WNW
USA 267 3.2 19:38:57 58° E 19:39:54 64° SE 19:46:22 10° SW
STARLINK-63 4.5 19:37:16 10° WSW 19:40:26 46° WNW 19:40:26 46° WNW
CZ-2C R/B 3.5 19:44:51 27° S 19:48:07 71° WSW 19:53:55 10° NNW
Cosmos 2263 4.1 19:42:29 10° SSW 19:48:17 86° WNW 19:49:08 66° NNE
H-2A R/B 2.7 19:45:44 18° S 19:49:31 55° W 19:54:51 10° NNW
SJ 16-02 4.0 20:04:55 10° N 20:05:16 12° N 20:05:16 12° N
USA 234 3.5 20:14:46 59° N 20:14:46 59° N 20:20:36 10° NW
ARGOS 4.4 20:14:27 28° SW 20:16:32 38° W 20:21:35 10° NNW
Resurs 01 Rocket 4.5 20:33:49 12° NNW 20:33:49 12° NNW 20:34:05 10° NNW
NOSS 3-1 (A) 4.3 20:26:52 10° WSW 20:32:01 44° NW 20:32:01 44° NW
CENTAUR R/B 4.4 20:55:12 10° NNW 20:59:54 28° N 20:59:54 28° N
